STARLINK-34242

Last updated on Sat Aug 02 2025 00:02:05 GMT+0000 (Coordinated Universal Time)

1 64727U 25144D 25213.58335648 .00081051 00000+0 20201-2 0 9998 2 64727 53.1594 124.8488 0001440 108.5109 206.0600 15.39539461 6087
UTC large
Height (km)
Speed (km/s)
/
Latitude / Longitude
Inclination (degrees)
Orbital Period (minutes)
Azimuth
Elevation
Range (km)
Doppler Factor

Next 0 passes for location: London (51.5072 / 0.1276)

Sorry there are no passes over London.